Vertical_Velocity
-1 1 1 1 1 -1 -0 0 -1 0 -0 1 1 0 0 0 -0 2 -0 0 -1 -0 -0 -0 1 1 0 0 0 -1 0 -0 -1
3 2 -0 -1 0 1 1 1 -0 1 -1 0 -0 0 -0 1 -1 -0 -1 -1 -1 1 2 2 -2 -0 -0 1 0 -2 -0 1 -1
2 -0 1 -0 -2 2 1 1 1 1 2 1 -0 -0 -1 -0 -0 -1 1 1 1 0 -1 0 1 0 1 1 0 1 -1 -1 0
-0 1 2 -0 0 0 2 2 1 1 2 0 0 1 1 0 2 1 1 -1 -0 -0 0 1 2 1 0 1 -0 1 -0 0 -1
0 1 -0 1 0 0 2 2 2 2 1 0 -0 1 1 0 0 -0 -1 0 -1 -1 -1 0 1 -0 0 -0 -0 0 0 -1 -1
4 2 -1 2 -1 1 -0 1 2 3 1 0 1 1 3 1 -0 1 0 -1 -0 0 -1 -0 -2 -1 -2 0 -1 -0 -1 -1 -1
3 0 0 -1 1 0 1 -1 1 1 3 2 1 1 1 2 0 1 1 1 1 1 -2 1 1 -1 1 1 1 -1 -2 -1 0
-0 -0 -0 1 2 1 2 -1 -0 1 -0 1 2 1 1 -0 1 0 0 -1 1 0 -1 0 -0 1 2 -0 0 -0 -0 0 -0
3 0 -0 1 3 2 -1 2 1 1 2 0 0 1 1 0 1 0 2 2 -0 0 1 -0 -0 -1 -1 -0 -1 -1 -0 -1 -1
1 3 1 -2 3 3 -3 3 -2 1 1 1 -0 1 2 -1 1 2 1 2 1 0 2 1 -0 1 -1 -1 -0 -0 -1 -1 -1
4 4 2 1 2 1 0 -1 0 -1 2 1 1 1 -0 1 1 1 0 0 1 0 1 1 1 0 -1 -1 0 0 -0 -1 0
2 5 3 1 2 1 2 0 4 -1 1 1 2 1 0 -1 2 -0 0 -1 1 1 1 1 1 1 0 0 -0 -0 -0 -1 -1
-0 4 2 1 3 1 2 1 3 1 1 1 2 1 1 -2 1 2 -1 -1 -0 -0 1 1 1 1 -0 -0 -0 -1 0 0 -1
1 1 1 2 1 2 2 2 1 -1 -1 2 1 1 2 2 1 1 2 1 1 2 0 1 2 1 2 2 2 1 0 1 -0
2 0 1 0 2 2 4 1 1 0 -4 2 2 2 2 3 2 -2 -0 3 1 1 -0 1 2 1 0 0 1 1 1 0 -1
-2 2 -1 1 1 -0 0 3 1 0 1 -3 4 1 -1 1 3 2 0 2 1 0 0 0 2 1 1 0 1 1 0 -0 -1
-1 -3 0 1 1 0 2 2 5 -0 1 4 -7 5 2 4 1 3 1 -0 0 2 1 -0 1 -1 1 -1 2 0 1 0 1
-1 -2 -2 1 -1 -1 -2 1 1 3 -2 3 -5 -1 9 -5 -0 5 4 2 2 0 -1 1 1 -0 -2 -2 -0 -0 0 -2 -2
-1 -1 -2 3 2 1 -1 1 2 3 1 -2 1 -2 1 -3 -0 3 3 -2 5 0 1 1 -1 -1 1 1 1 -3 -1 -1 -0
-0 3 -0 0 3 1 -0 1 5 1 -1 1 1 -1 -0 0 4 2 2 -1 4 -1 -1 -1 3 2 4 1 -3 -2 -2 -0 1
Height
5862 5864 5865 5865 5866 5867 5868 5869 5870 5871 5871 5872 5872 5872 5872 5872 5873 5873 5874 5875 5875 5875 5875 5876 5877 5877 5878 5878 5879 5879 5879 5879 5880
5861 5862 5863 5863 5864 5866 5867 5867 5868 5869 5870 5871 5870 5871 5871 5871 5872 5873 5873 5874 5875 5875 5876 5876 5877 5877 5878 5878 5878 5878 5879 5880 5880
5858 5859 5861 5862 5862 5864 5865 5866 5867 5867 5869 5869 5869 5869 5869 5871 5871 5872 5873 5874 5875 5875 5876 5876 5876 5877 5878 5878 5878 5878 5879 5879 5880
5854 5857 5858 5859 5860 5862 5863 5863 5865 5865 5866 5867 5868 5868 5869 5870 5871 5872 5872 5873 5874 5874 5874 5875 5876 5876 5876 5877 5878 5878 5879 5879 5879
5851 5853 5854 5857 5858 5859 5860 5861 5863 5864 5864 5865 5866 5867 5868 5868 5869 5870 5871 5872 5872 5873 5873 5874 5874 5874 5875 5876 5877 5878 5878 5877 5878
5847 5849 5851 5853 5855 5857 5858 5858 5860 5861 5862 5863 5864 5865 5866 5867 5867 5868 5869 5869 5871 5872 5872 5872 5873 5874 5874 5875 5876 5876 5875 5876 5876
5842 5844 5847 5849 5851 5853 5855 5856 5858 5858 5859 5860 5862 5863 5864 5865 5866 5866 5867 5868 5869 5870 5870 5871 5872 5872 5873 5873 5873 5873 5874 5874 5874
5836 5839 5842 5845 5847 5850 5851 5853 5854 5855 5856 5858 5859 5860 5861 5863 5864 5864 5865 5865 5866 5867 5868 5869 5870 5870 5871 5871 5871 5871 5871 5871 5871
5831 5834 5837 5840 5843 5845 5846 5849 5851 5852 5853 5854 5856 5857 5858 5859 5860 5861 5862 5862 5863 5863 5864 5865 5867 5867 5868 5868 5868 5869 5869 5868 5869
5824 5828 5831 5834 5838 5840 5841 5845 5846 5848 5849 5851 5852 5853 5853 5855 5856 5857 5858 5859 5859 5860 5861 5862 5863 5864 5864 5865 5865 5865 5865 5865 5866
5818 5822 5825 5828 5832 5834 5836 5839 5842 5844 5845 5847 5848 5849 5849 5851 5851 5852 5853 5854 5855 5856 5856 5857 5859 5860 5860 5861 5861 5861 5861 5861 5861
5811 5815 5818 5821 5825 5828 5830 5833 5836 5838 5839 5842 5844 5844 5844 5845 5847 5848 5849 5849 5850 5851 5852 5853 5854 5855 5856 5857 5857 5857 5857 5857 5856
5803 5808 5811 5814 5818 5821 5824 5827 5830 5832 5833 5835 5837 5839 5839 5839 5841 5842 5843 5844 5845 5846 5847 5848 5849 5850 5850 5851 5851 5851 5851 5851 5851
5796 5800 5804 5807 5810 5813 5817 5820 5822 5824 5825 5828 5830 5832 5833 5834 5835 5836 5837 5838 5839 5840 5841 5842 5843 5844 5844 5844 5845 5845 5845 5845 5845
5788 5792 5796 5799 5802 5805 5809 5812 5814 5816 5816 5819 5822 5824 5825 5826 5828 5828 5829 5831 5832 5833 5833 5835 5836 5836 5837 5837 5838 5838 5838 5838 5837
5780 5784 5787 5791 5794 5797 5800 5803 5805 5808 5809 5810 5814 5816 5816 5818 5819 5821 5820 5822 5824 5825 5826 5827 5829 5829 5830 5830 5830 5831 5831 5830 5829
5770 5774 5778 5781 5784 5787 5790 5793 5796 5798 5801 5803 5804 5806 5809 5811 5812 5812 5812 5813 5815 5817 5818 5819 5819 5820 5820 5820 5821 5822 5822 5821 5820
5760 5763 5767 5770 5773 5777 5779 5782 5786 5788 5791 5793 5795 5796 5800 5801 5803 5805 5804 5805 5806 5807 5808 5809 5810 5810 5810 5811 5812 5812 5813 5812 5810
5749 5752 5755 5758 5762 5765 5768 5771 5774 5777 5780 5782 5785 5787 5788 5790 5792 5795 5797 5797 5797 5798 5798 5799 5799 5799 5800 5800 5801 5801 5801 5800 5798
5738 5741 5743 5747 5750 5753 5756 5759 5762 5765 5768 5771 5772 5775 5776 5779 5781 5782 5783 5785 5786 5786 5787 5787 5788 5789 5789 5789 5789 5788 5788 5787 5786